Location: Roc des P�zouls
(43.9667°N, 3.5500°E)
Time: 21:52:25
(UTC+00:00)

Cosmos 2221 - Pass Details

Date: 14 November 2019
Orbit: 594 x 615 km, 82.5° (Epoch: 12 December)

Event Time Altitude Azimuth Distance (km) Brightness Sun altitude
Exits shadow 04:09:05 36° 156° (SSE) 983 3.7 -26.9°
Drops below altitude 10° 04:11:43 10° 166° (SSE) 1,970 5.3 -26.5°
Sets 04:13:56 0° 168° (SSE) 2,869 6.1 -26.1°
